Погода в Ковылкино

Россия / Республика Мордовия     54°02′21″N   43°55′08″E
темп.,
°C
ветер,
м/с
пор.,
м/с
влажн.,
%
обл.,
%
осадки,
мм/ч
давл.,
гПа
погр.,
м
5 августа, чт
чт500:00+17ссз236191 0.0 101646
03:00+15с116918 0.0 101711
06:00+16ссз23715 0.0 101882
09:00+21с11503 0.0 1017514
12:00+24зсз23425 0.0 10171642
15:00+25з233999 0.0 10172364
18:00+23св115363 0.0 101715
21:00+19в345699 0.0 101666
6 августа, пт
пт600:00+17юв366599 0.0 101797
03:00+17юв3863100 0.0 1016174
06:00+17ююв3867100 0.0 1017192
09:00+21ююв4759100 0.0 1016357
12:00+19юв266799 0.0 1017204
15:00+25ююв464857 0.0 1015781
18:00+25юв485731 0.0 1014251
21:00+21ююв514575 0.0 1014301
7 августа, сб
сб700:00+20ююв5145664 0.0 1014326
03:00+19ю5145274 0.0 1014322
06:00+18ююв41261100 0.0 1015282
09:00+24ю6104847 0.0 1015560
12:00+28ю5636100 0.0 10151203
15:00+29ююв45345 0.0 10141530
18:00+26юв37510 0.0 1014190
21:00+21юв465196 0.0 101584
8 августа, вс
вс800:00+20юв495649 0.0 1015149
03:00+18юв355496 0.0 101577
06:00+19юв4957100 0.0 1015165
09:00+23ююв51049100 0.0 1015349
12:00+29ю4735100 0.0 1015802
15:00+32ю462899 0.0 10152507
18:00+27юв4645100 0.0 101585
21:00+23юз2249100 0.0 101732
9 августа, пн
пн900:00+22с1151100 0.0 101813
03:00+23вюв3546100 0.0 101776
06:00+22ююв2251100 0.0 101829
09:00+24вюв355290 0.0 1018199
12:00+28ююв344236 0.0 1017457
15:00+31юз24305 0.0 10171944
18:00+28ююз344659 0.0 101679
21:00+25ю344265 0.0 101760